Year,Month,Day,Hour,Minute,Value (Times are PST for temperature in C)
2010,08,13,00,00,13.10
2010,08,13,00,01,13.10
2010,08,13,00,02,13.00
2010,08,13,00,03,13.00
2010,08,13,00,04,12.90
2010,08,13,00,05,12.80
2010,08,13,00,06,12.80
2010,08,13,00,07,12.70
2010,08,13,00,08,12.60
2010,08,13,00,09,12.50
2010,08,13,00,10,12.50
2010,08,13,00,11,12.40
2010,08,13,00,12,12.40
2010,08,13,00,13,12.30
2010,08,13,00,14,12.30
2010,08,13,00,15,12.30
2010,08,13,00,16,12.20
2010,08,13,00,17,12.20
2010,08,13,00,18,12.20
2010,08,13,00,19,12.10
2010,08,13,00,20,12.10
2010,08,13,00,21,12.10
2010,08,13,00,22,12.10
2010,08,13,00,23,12.10
2010,08,13,00,24,12.10
2010,08,13,00,25,12.10
2010,08,13,00,26,12.10
2010,08,13,00,27,12.10
2010,08,13,00,28,12.10
2010,08,13,00,29,12.10
2010,08,13,00,30,12.20
2010,08,13,00,31,12.20
2010,08,13,00,32,12.20
2010,08,13,00,33,12.20
2010,08,13,00,34,12.20
2010,08,13,00,35,12.20
2010,08,13,00,36,12.30
2010,08,13,00,37,12.30
2010,08,13,00,38,12.30
2010,08,13,00,39,12.30
2010,08,13,00,40,12.30
2010,08,13,00,41,12.30
2010,08,13,00,42,12.30
2010,08,13,00,43,12.30
2010,08,13,00,44,12.30
2010,08,13,00,45,12.20
2010,08,13,00,46,12.20
2010,08,13,00,47,12.20
2010,08,13,00,48,12.20
2010,08,13,00,49,12.20
2010,08,13,00,50,12.10
2010,08,13,00,51,12.10
2010,08,13,00,52,12.00
2010,08,13,00,53,12.00
2010,08,13,00,54,12.00
2010,08,13,00,55,11.90
2010,08,13,00,56,11.90
2010,08,13,00,57,11.90
2010,08,13,00,58,11.90
2010,08,13,00,59,11.80
2010,08,13,01,00,11.80
2010,08,13,01,01,11.80
2010,08,13,01,02,11.80
2010,08,13,01,03,11.80
2010,08,13,01,04,11.80
2010,08,13,01,05,11.80
2010,08,13,01,06,11.80
2010,08,13,01,07,11.80
2010,08,13,01,08,11.80
2010,08,13,01,09,11.80
2010,08,13,01,10,11.80
2010,08,13,01,11,11.90
2010,08,13,01,12,11.90
2010,08,13,01,13,11.90
2010,08,13,01,14,11.80
2010,08,13,01,15,11.80
2010,08,13,01,16,11.80
2010,08,13,01,17,11.70
2010,08,13,01,18,11.70
2010,08,13,01,19,11.70
2010,08,13,01,20,11.70
2010,08,13,01,21,11.60
2010,08,13,01,22,11.60
2010,08,13,01,23,11.60
2010,08,13,01,24,11.60
2010,08,13,01,25,11.60
2010,08,13,01,26,11.60
2010,08,13,01,27,11.60
2010,08,13,01,28,11.60
2010,08,13,01,29,11.60
2010,08,13,01,30,11.60
2010,08,13,01,31,11.60
2010,08,13,01,32,11.60
2010,08,13,01,33,11.60
2010,08,13,01,34,11.60
2010,08,13,01,35,11.60
2010,08,13,01,36,11.60
2010,08,13,01,37,11.60
2010,08,13,01,38,11.60
2010,08,13,01,39,11.60
2010,08,13,01,40,11.60
2010,08,13,01,41,11.60
2010,08,13,01,42,11.60
2010,08,13,01,43,11.60
2010,08,13,01,44,11.70
2010,08,13,01,45,11.70
2010,08,13,01,46,11.80
2010,08,13,01,47,11.80
2010,08,13,01,48,11.80
2010,08,13,01,49,11.90
2010,08,13,01,50,11.90
2010,08,13,01,51,11.90
2010,08,13,01,52,12.00
2010,08,13,01,53,12.00
2010,08,13,01,54,12.00
2010,08,13,01,55,12.00
2010,08,13,01,56,12.10
2010,08,13,01,57,12.10
2010,08,13,01,58,12.10
2010,08,13,01,59,12.20
2010,08,13,02,00,12.20
2010,08,13,02,01,12.20
2010,08,13,02,02,12.20
2010,08,13,02,03,12.20
2010,08,13,02,04,12.20
2010,08,13,02,05,12.20
2010,08,13,02,06,12.10
2010,08,13,02,07,12.10
2010,08,13,02,08,12.10
2010,08,13,02,09,12.10
2010,08,13,02,10,12.00
2010,08,13,02,11,12.00
2010,08,13,02,12,12.00
2010,08,13,02,13,12.00
2010,08,13,02,14,12.00
2010,08,13,02,15,11.90
2010,08,13,02,16,11.90
2010,08,13,02,17,11.90
2010,08,13,02,18,11.90
2010,08,13,02,19,12.00
2010,08,13,02,20,12.00
2010,08,13,02,21,12.00
2010,08,13,02,22,12.00
2010,08,13,02,23,12.10
2010,08,13,02,24,12.10
2010,08,13,02,25,12.10
2010,08,13,02,26,12.10
2010,08,13,02,27,12.20
2010,08,13,02,28,12.20
2010,08,13,02,29,12.20
2010,08,13,02,30,12.20
2010,08,13,02,31,12.20
2010,08,13,02,32,12.30
2010,08,13,02,33,12.30
2010,08,13,02,34,12.30
2010,08,13,02,35,12.30
2010,08,13,02,36,12.30
2010,08,13,02,37,12.30
2010,08,13,02,38,12.30
2010,08,13,02,39,12.30
2010,08,13,02,40,12.30
2010,08,13,02,41,12.30
2010,08,13,02,42,12.30
2010,08,13,02,43,12.30
2010,08,13,02,44,12.30
2010,08,13,02,45,12.30
2010,08,13,02,46,12.20
2010,08,13,02,47,12.20
2010,08,13,02,48,12.20
2010,08,13,02,49,12.20
2010,08,13,02,50,12.20
2010,08,13,02,51,12.20
2010,08,13,02,52,12.20
2010,08,13,02,53,12.20
2010,08,13,02,54,12.30
2010,08,13,02,55,12.30
2010,08,13,02,56,12.30
2010,08,13,02,57,12.30
2010,08,13,02,58,12.30
2010,08,13,02,59,12.30
2010,08,13,03,00,12.30
2010,08,13,03,01,12.30
2010,08,13,03,02,12.30
2010,08,13,03,03,12.30
2010,08,13,03,04,12.30
2010,08,13,03,05,12.30
2010,08,13,03,06,12.30
2010,08,13,03,07,12.30
2010,08,13,03,08,12.30
2010,08,13,03,09,12.30
2010,08,13,03,10,12.30
2010,08,13,03,11,12.30
2010,08,13,03,12,12.30
2010,08,13,03,13,12.30
2010,08,13,03,14,12.30
2010,08,13,03,15,12.40
2010,08,13,03,16,12.40
2010,08,13,03,17,12.40
2010,08,13,03,18,12.40
2010,08,13,03,19,12.50
2010,08,13,03,20,12.50
2010,08,13,03,21,12.50
2010,08,13,03,22,12.50
2010,08,13,03,23,12.50
2010,08,13,03,24,12.50
2010,08,13,03,25,12.50
2010,08,13,03,26,12.50
2010,08,13,03,27,12.50
2010,08,13,03,28,12.50
2010,08,13,03,29,12.50
2010,08,13,03,30,12.60
2010,08,13,03,31,12.60
2010,08,13,03,32,12.60
2010,08,13,03,33,12.60
2010,08,13,03,34,12.60
2010,08,13,03,35,12.60
2010,08,13,03,36,12.60
2010,08,13,03,37,12.70
2010,08,13,03,38,12.70
2010,08,13,03,39,12.70
2010,08,13,03,40,12.70
2010,08,13,03,41,12.80
2010,08,13,03,42,12.80
2010,08,13,03,43,12.80
2010,08,13,03,44,12.90
2010,08,13,03,45,13.00
2010,08,13,03,46,13.00
2010,08,13,03,47,13.00
2010,08,13,03,48,13.10
2010,08,13,03,49,13.10
2010,08,13,03,50,13.10
2010,08,13,03,51,13.10
2010,08,13,03,52,13.10
2010,08,13,03,53,13.10
2010,08,13,03,54,13.10
2010,08,13,03,55,13.10
2010,08,13,03,56,13.10
2010,08,13,03,57,13.10
2010,08,13,03,58,13.00
2010,08,13,03,59,12.90
2010,08,13,04,00,12.90
2010,08,13,04,01,12.90
2010,08,13,04,02,12.90
2010,08,13,04,03,12.90
2010,08,13,04,04,12.90
2010,08,13,04,05,12.80
2010,08,13,04,06,12.80
2010,08,13,04,07,12.90
2010,08,13,04,08,12.90
2010,08,13,04,09,12.90
2010,08,13,04,10,12.90
2010,08,13,04,11,12.90
2010,08,13,04,12,12.90
2010,08,13,04,13,12.90
2010,08,13,04,14,12.90
2010,08,13,04,15,12.90
2010,08,13,04,16,12.90
2010,08,13,04,17,12.90
2010,08,13,04,18,12.80
2010,08,13,04,19,12.80
2010,08,13,04,20,12.80
2010,08,13,04,21,12.90
2010,08,13,04,22,12.90
2010,08,13,04,23,12.90
2010,08,13,04,24,13.00
2010,08,13,04,25,13.00
2010,08,13,04,26,13.00
2010,08,13,04,27,13.10
2010,08,13,04,28,13.10
2010,08,13,04,29,13.10
2010,08,13,04,30,13.20
2010,08,13,04,31,13.20
2010,08,13,04,32,13.20
2010,08,13,04,33,13.10
2010,08,13,04,34,13.10
2010,08,13,04,35,13.10
2010,08,13,04,36,13.10
2010,08,13,04,37,13.10
2010,08,13,04,38,13.00
2010,08,13,04,39,13.00
2010,08,13,04,40,13.00
2010,08,13,04,41,13.00
2010,08,13,04,42,13.00
2010,08,13,04,43,13.10
2010,08,13,04,44,13.10
2010,08,13,04,45,13.10
2010,08,13,04,46,13.10
2010,08,13,04,47,13.00
2010,08,13,04,48,12.90
2010,08,13,04,49,12.90
2010,08,13,04,50,12.80
2010,08,13,04,51,12.80
2010,08,13,04,52,12.80
2010,08,13,04,53,12.80
2010,08,13,04,54,12.80
2010,08,13,04,55,12.80
2010,08,13,04,56,12.80
2010,08,13,04,57,12.80
2010,08,13,04,58,12.80
2010,08,13,04,59,12.70
2010,08,13,05,00,12.70
2010,08,13,05,01,12.60
2010,08,13,05,02,12.60
2010,08,13,05,03,12.60
2010,08,13,05,04,12.60
2010,08,13,05,05,12.60
2010,08,13,05,06,12.50
2010,08,13,05,07,12.50
2010,08,13,05,08,12.50
2010,08,13,05,09,12.50
2010,08,13,05,10,12.40
2010,08,13,05,11,12.40
2010,08,13,05,12,12.40
2010,08,13,05,13,12.40
2010,08,13,05,14,12.40
2010,08,13,05,15,12.30
2010,08,13,05,16,12.30
2010,08,13,05,17,12.30
2010,08,13,05,18,12.30
2010,08,13,05,19,12.30
2010,08,13,05,20,12.30
2010,08,13,05,21,12.30
2010,08,13,05,22,12.30
2010,08,13,05,23,12.40
2010,08,13,05,24,12.50
2010,08,13,05,25,12.50
2010,08,13,05,26,12.60
2010,08,13,05,27,12.70
2010,08,13,05,28,12.70
2010,08,13,05,29,12.80
2010,08,13,05,30,12.80
2010,08,13,05,31,12.80
2010,08,13,05,32,12.80
2010,08,13,05,33,12.80
2010,08,13,05,34,12.80
2010,08,13,05,35,12.80
2010,08,13,05,36,12.70
2010,08,13,05,37,12.70
2010,08,13,05,38,12.60
2010,08,13,05,39,12.60
2010,08,13,05,40,12.60
2010,08,13,05,41,12.70
2010,08,13,05,42,12.80
2010,08,13,05,43,12.80
2010,08,13,05,44,12.90
2010,08,13,05,45,12.80
2010,08,13,05,46,12.80
2010,08,13,05,47,12.80
2010,08,13,05,48,12.80
2010,08,13,05,49,12.70
2010,08,13,05,50,12.70
2010,08,13,05,51,12.80
2010,08,13,05,52,12.70
2010,08,13,05,53,12.70
2010,08,13,05,54,12.60
2010,08,13,05,55,12.60
2010,08,13,05,56,12.60
2010,08,13,05,57,12.50
2010,08,13,05,58,12.50
2010,08,13,05,59,12.40
2010,08,13,06,00,12.40
2010,08,13,06,01,12.30
2010,08,13,06,02,12.30
2010,08,13,06,03,12.30
2010,08,13,06,04,12.30
2010,08,13,06,05,12.30
2010,08,13,06,06,12.30
2010,08,13,06,07,12.30
2010,08,13,06,08,12.30
2010,08,13,06,09,12.30
2010,08,13,06,10,12.30
2010,08,13,06,11,12.30
2010,08,13,06,12,12.30
2010,08,13,06,13,12.30
2010,08,13,06,14,12.20
2010,08,13,06,15,12.20
2010,08,13,06,16,12.20
2010,08,13,06,17,12.20
2010,08,13,06,18,12.20
2010,08,13,06,19,12.20
2010,08,13,06,20,12.30
2010,08,13,06,21,12.30
2010,08,13,06,22,12.30
2010,08,13,06,23,12.30
2010,08,13,06,24,12.40
2010,08,13,06,25,12.50
2010,08,13,06,26,12.60
2010,08,13,06,27,12.60
2010,08,13,06,28,12.70
2010,08,13,06,29,12.70
2010,08,13,06,30,12.80
2010,08,13,06,31,12.80
2010,08,13,06,32,12.90
2010,08,13,06,33,13.00
2010,08,13,06,34,13.00
2010,08,13,06,35,13.10
2010,08,13,06,36,13.10
2010,08,13,06,37,13.10
2010,08,13,06,38,13.20
2010,08,13,06,39,13.20
2010,08,13,06,40,13.20
2010,08,13,06,41,13.20
2010,08,13,06,42,13.20
2010,08,13,06,43,13.20
2010,08,13,06,44,13.10
2010,08,13,06,45,13.00
2010,08,13,06,46,12.80
2010,08,13,06,47,12.80
2010,08,13,06,48,12.80
2010,08,13,06,49,12.80
2010,08,13,06,50,12.70
2010,08,13,06,51,12.70
2010,08,13,06,52,12.80
2010,08,13,06,53,12.80
2010,08,13,06,54,12.80
2010,08,13,06,55,12.90
2010,08,13,06,56,13.00
2010,08,13,06,57,13.10
2010,08,13,06,58,13.20
2010,08,13,06,59,13.30
2010,08,13,07,00,13.50
2010,08,13,07,01,13.60
2010,08,13,07,02,13.70
2010,08,13,07,03,13.80
2010,08,13,07,04,13.90
2010,08,13,07,05,13.90
2010,08,13,07,06,13.90
2010,08,13,07,07,13.80
2010,08,13,07,08,13.70
2010,08,13,07,09,13.70
2010,08,13,07,10,13.70
2010,08,13,07,11,13.70
2010,08,13,07,12,13.70
2010,08,13,07,13,13.70
2010,08,13,07,14,13.70
2010,08,13,07,15,13.70
2010,08,13,07,16,13.70
2010,08,13,07,17,13.80
2010,08,13,07,18,13.90
2010,08,13,07,19,13.90
2010,08,13,07,20,14.00
2010,08,13,07,21,14.10
2010,08,13,07,22,14.20
2010,08,13,07,23,14.20
2010,08,13,07,24,14.30
2010,08,13,07,25,14.40
2010,08,13,07,26,14.50
2010,08,13,07,27,14.60
2010,08,13,07,28,14.60
2010,08,13,07,29,14.60
2010,08,13,07,30,14.60
2010,08,13,07,31,14.50
2010,08,13,07,32,14.40
2010,08,13,07,33,14.20
2010,08,13,07,34,14.10
2010,08,13,07,35,14.00
2010,08,13,07,36,14.00
2010,08,13,07,37,14.00
2010,08,13,07,38,14.10
2010,08,13,07,39,14.20
2010,08,13,07,40,14.30
2010,08,13,07,41,14.40
2010,08,13,07,42,14.50
2010,08,13,07,43,14.60
2010,08,13,07,44,14.70
2010,08,13,07,45,14.70
2010,08,13,07,46,14.80
2010,08,13,07,47,14.90
2010,08,13,07,48,15.00
2010,08,13,07,49,15.10
2010,08,13,07,50,15.30
2010,08,13,07,51,15.30
2010,08,13,07,52,15.40
2010,08,13,07,53,15.50
2010,08,13,07,54,15.60
2010,08,13,07,55,15.60
2010,08,13,07,56,15.70
2010,08,13,07,57,15.70
2010,08,13,07,58,15.80
2010,08,13,07,59,15.80
2010,08,13,08,00,15.80
2010,08,13,08,01,15.90
2010,08,13,08,02,15.90
2010,08,13,08,03,16.00
2010,08,13,08,04,16.10
2010,08,13,08,05,16.10
2010,08,13,08,06,16.20
2010,08,13,08,07,16.30
2010,08,13,08,08,16.30
2010,08,13,08,09,16.50
2010,08,13,08,10,16.60
2010,08,13,08,11,16.70
2010,08,13,08,12,16.80
2010,08,13,08,13,16.80
2010,08,13,08,14,16.80
2010,08,13,08,15,16.80
2010,08,13,08,16,16.90
2010,08,13,08,17,16.90
2010,08,13,08,18,16.90
2010,08,13,08,19,16.90
2010,08,13,08,20,17.00
2010,08,13,08,21,17.00
2010,08,13,08,22,17.10
2010,08,13,08,23,17.10
2010,08,13,08,24,17.10
2010,08,13,08,25,17.20
2010,08,13,08,26,17.30
2010,08,13,08,27,17.30
2010,08,13,08,28,17.50
2010,08,13,08,29,17.50
2010,08,13,08,30,17.60
2010,08,13,08,31,17.70
2010,08,13,08,32,17.80
2010,08,13,08,33,17.90
2010,08,13,08,34,17.90
2010,08,13,08,35,17.90
2010,08,13,08,36,17.90
2010,08,13,08,37,17.90
2010,08,13,08,38,18.00
2010,08,13,08,39,18.10
2010,08,13,08,40,18.20
2010,08,13,08,41,18.20
2010,08,13,08,42,18.30
2010,08,13,08,43,18.40
2010,08,13,08,44,18.50
2010,08,13,08,45,18.60
2010,08,13,08,46,18.60
2010,08,13,08,47,18.70
2010,08,13,08,48,18.80
2010,08,13,08,49,18.80
2010,08,13,08,50,18.90
2010,08,13,08,51,18.90
2010,08,13,08,52,18.90
2010,08,13,08,53,19.10
2010,08,13,08,54,19.10
2010,08,13,08,55,19.10
2010,08,13,08,56,19.20
2010,08,13,08,57,19.20
2010,08,13,08,58,19.30
2010,08,13,08,59,19.40
2010,08,13,09,00,19.50
2010,08,13,09,01,19.60
2010,08,13,09,02,19.60
2010,08,13,09,03,19.70
2010,08,13,09,04,19.70
2010,08,13,09,05,19.70
2010,08,13,09,06,19.80
2010,08,13,09,07,19.80
2010,08,13,09,08,19.80
2010,08,13,09,09,19.80
2010,08,13,09,10,19.80
2010,08,13,09,11,19.80
2010,08,13,09,12,19.80
2010,08,13,09,13,19.80
2010,08,13,09,14,19.80
2010,08,13,09,15,19.80
2010,08,13,09,16,19.90
2010,08,13,09,17,19.90
2010,08,13,09,18,19.90
2010,08,13,09,19,19.90
2010,08,13,09,20,19.90
2010,08,13,09,21,19.90
2010,08,13,09,22,19.90
2010,08,13,09,23,19.90
2010,08,13,09,24,19.90
2010,08,13,09,25,19.90
2010,08,13,09,26,20.00
2010,08,13,09,27,20.10
2010,08,13,09,28,20.10
2010,08,13,09,29,20.20
2010,08,13,09,30,20.20
2010,08,13,09,31,20.30
2010,08,13,09,32,20.30
2010,08,13,09,33,20.40
2010,08,13,09,34,20.40
2010,08,13,09,35,20.40
2010,08,13,09,36,20.40
2010,08,13,09,37,20.40
2010,08,13,09,38,20.40
2010,08,13,09,39,20.40
2010,08,13,09,40,20.40
2010,08,13,09,41,20.50
2010,08,13,09,42,20.50
2010,08,13,09,43,20.50
2010,08,13,09,44,20.60
2010,08,13,09,45,20.60
2010,08,13,09,46,20.60
2010,08,13,09,47,20.60
2010,08,13,09,48,20.60
2010,08,13,09,49,20.60
2010,08,13,09,50,20.60
2010,08,13,09,51,20.70
2010,08,13,09,52,20.70
2010,08,13,09,53,20.80
2010,08,13,09,54,20.80
2010,08,13,09,55,20.90
2010,08,13,09,56,20.90
2010,08,13,09,57,20.90
2010,08,13,09,58,20.90
2010,08,13,09,59,20.90
2010,08,13,10,00,20.90
2010,08,13,10,01,21.00
2010,08,13,10,02,21.00
2010,08,13,10,03,21.10
2010,08,13,10,04,21.10
2010,08,13,10,05,21.20
2010,08,13,10,06,21.20
2010,08,13,10,07,21.30
2010,08,13,10,08,21.30
2010,08,13,10,09,21.30
2010,08,13,10,10,21.40
2010,08,13,10,11,21.40
2010,08,13,10,12,21.50
2010,08,13,10,13,21.60
2010,08,13,10,14,21.60
2010,08,13,10,15,21.50
2010,08,13,10,16,21.40
2010,08,13,10,17,21.40
2010,08,13,10,18,21.40
2010,08,13,10,19,21.30
2010,08,13,10,20,21.30
2010,08,13,10,21,21.30
2010,08,13,10,22,21.30
2010,08,13,10,23,21.30
2010,08,13,10,24,21.20
2010,08,13,10,25,21.20
2010,08,13,10,26,21.20
2010,08,13,10,27,21.20
2010,08,13,10,28,21.30
2010,08,13,10,29,21.30
2010,08,13,10,30,21.30
2010,08,13,10,31,21.30
2010,08,13,10,32,21.30
2010,08,13,10,33,21.30
2010,08,13,10,34,21.40
2010,08,13,10,35,21.40
2010,08,13,10,36,21.50
2010,08,13,10,37,21.60
2010,08,13,10,38,21.60
2010,08,13,10,39,21.60
2010,08,13,10,40,21.60
2010,08,13,10,41,21.60
2010,08,13,10,42,21.70
2010,08,13,10,43,21.70
2010,08,13,10,44,21.80
2010,08,13,10,45,21.80
2010,08,13,10,46,21.80
2010,08,13,10,47,21.80
2010,08,13,10,48,21.70
2010,08,13,10,49,21.70
2010,08,13,10,50,21.60
2010,08,13,10,51,21.60
2010,08,13,10,52,21.60
2010,08,13,10,53,21.60
2010,08,13,10,54,21.70
2010,08,13,10,55,21.80
2010,08,13,10,56,21.90
2010,08,13,10,57,22.00
2010,08,13,10,58,22.10
2010,08,13,10,59,22.20
2010,08,13,11,00,22.30
2010,08,13,11,01,22.40
2010,08,13,11,02,22.50
2010,08,13,11,03,22.60
2010,08,13,11,04,22.70
2010,08,13,11,05,22.80
2010,08,13,11,06,22.80
2010,08,13,11,07,22.90
2010,08,13,11,08,22.90
2010,08,13,11,09,22.90
2010,08,13,11,10,22.90
2010,08,13,11,11,22.90
2010,08,13,11,12,22.90
2010,08,13,11,13,22.90
2010,08,13,11,14,22.90
2010,08,13,11,15,22.90
2010,08,13,11,16,22.90
2010,08,13,11,17,22.90
2010,08,13,11,18,22.90
2010,08,13,11,19,22.90
2010,08,13,11,20,22.90
2010,08,13,11,21,22.90
2010,08,13,11,22,22.90
2010,08,13,11,23,22.90
2010,08,13,11,24,22.90
2010,08,13,11,25,22.90
2010,08,13,11,26,22.90
2010,08,13,11,27,22.90
2010,08,13,11,28,22.90
2010,08,13,11,29,22.90
2010,08,13,11,30,22.90
2010,08,13,11,31,22.90
2010,08,13,11,32,23.00
2010,08,13,11,33,23.10
2010,08,13,11,34,23.10
2010,08,13,11,35,23.10
2010,08,13,11,36,23.20
2010,08,13,11,37,23.20
2010,08,13,11,38,23.30
2010,08,13,11,39,23.30
2010,08,13,11,40,23.30
2010,08,13,11,41,23.50
2010,08,13,11,42,23.60
2010,08,13,11,43,23.60
2010,08,13,11,44,23.70
2010,08,13,11,45,23.70
2010,08,13,11,46,23.70
2010,08,13,11,47,23.70
2010,08,13,11,48,23.70
2010,08,13,11,49,23.70
2010,08,13,11,50,23.70
2010,08,13,11,51,23.80
2010,08,13,11,52,23.70
2010,08,13,11,53,23.80
2010,08,13,11,54,23.80
2010,08,13,11,55,23.90
2010,08,13,11,56,24.00
2010,08,13,11,57,24.10
2010,08,13,11,58,24.10
2010,08,13,11,59,24.10
2010,08,13,12,00,24.20
2010,08,13,12,01,24.30
2010,08,13,12,02,24.30
2010,08,13,12,03,24.40
2010,08,13,12,04,24.40
2010,08,13,12,05,24.40
2010,08,13,12,06,24.40
2010,08,13,12,07,24.40
2010,08,13,12,08,24.40
2010,08,13,12,09,24.50
2010,08,13,12,10,24.50
2010,08,13,12,11,24.60
2010,08,13,12,12,24.60
2010,08,13,12,13,24.60
2010,08,13,12,14,24.70
2010,08,13,12,15,24.70
2010,08,13,12,16,24.70
2010,08,13,12,17,24.70
2010,08,13,12,18,24.80
2010,08,13,12,19,24.80
2010,08,13,12,20,24.80
2010,08,13,12,21,24.80
2010,08,13,12,22,24.80
2010,08,13,12,23,24.90
2010,08,13,12,24,25.00
2010,08,13,12,25,25.10
2010,08,13,12,26,25.20
2010,08,13,12,27,25.20
2010,08,13,12,28,25.30
2010,08,13,12,29,25.30
2010,08,13,12,30,25.30
2010,08,13,12,31,25.30
2010,08,13,12,32,25.30
2010,08,13,12,33,25.40
2010,08,13,12,34,25.40
2010,08,13,12,35,25.40
2010,08,13,12,36,25.50
2010,08,13,12,37,25.50
2010,08,13,12,38,25.60
2010,08,13,12,39,25.60
2010,08,13,12,40,25.70
2010,08,13,12,41,25.80
2010,08,13,12,42,25.90
2010,08,13,12,43,26.00
2010,08,13,12,44,26.00
2010,08,13,12,45,26.00
2010,08,13,12,46,26.00
2010,08,13,12,47,26.00
2010,08,13,12,48,26.10
2010,08,13,12,49,26.10
2010,08,13,12,50,26.10
2010,08,13,12,51,26.20
2010,08,13,12,52,26.20
2010,08,13,12,53,26.40
2010,08,13,12,54,26.50
2010,08,13,12,55,26.60
2010,08,13,12,56,26.60
2010,08,13,12,57,26.60
2010,08,13,12,58,26.60
2010,08,13,12,59,26.40
2010,08,13,13,00,25.60
2010,08,13,13,01,24.40
2010,08,13,13,02,23.50
2010,08,13,13,03,22.80
2010,08,13,13,04,22.30
2010,08,13,13,05,22.20
2010,08,13,13,06,22.10
2010,08,13,13,07,22.10
2010,08,13,13,08,22.00
2010,08,13,13,09,22.00
2010,08,13,13,10,21.90
2010,08,13,13,11,21.80
2010,08,13,13,12,21.90
2010,08,13,13,13,22.10
2010,08,13,13,14,22.30
2010,08,13,13,15,22.60
2010,08,13,13,16,22.80
2010,08,13,13,17,23.20
2010,08,13,13,18,23.40
2010,08,13,13,19,23.60
2010,08,13,13,20,23.80
2010,08,13,13,21,23.90
2010,08,13,13,22,24.10
2010,08,13,13,23,24.30
2010,08,13,13,24,24.60
2010,08,13,13,25,24.80
2010,08,13,13,26,25.10
2010,08,13,13,27,25.40
2010,08,13,13,28,25.70
2010,08,13,13,29,25.90
2010,08,13,13,30,26.20
2010,08,13,13,31,26.50
2010,08,13,13,32,26.60
2010,08,13,13,33,26.70
2010,08,13,13,34,26.70
2010,08,13,13,35,26.40
2010,08,13,13,36,25.80
2010,08,13,13,37,24.90
2010,08,13,13,38,24.10
2010,08,13,13,39,23.40
2010,08,13,13,40,23.00
2010,08,13,13,41,22.90
2010,08,13,13,42,22.80
2010,08,13,13,43,22.80
2010,08,13,13,44,22.90
2010,08,13,13,45,23.20
2010,08,13,13,46,23.30
2010,08,13,13,47,23.50
2010,08,13,13,48,23.80
2010,08,13,13,49,24.10
2010,08,13,13,50,23.90
2010,08,13,13,51,23.60
2010,08,13,13,52,23.40
2010,08,13,13,53,23.20
2010,08,13,13,54,23.10
2010,08,13,13,55,23.10
2010,08,13,13,56,23.10
2010,08,13,13,57,23.20
2010,08,13,13,58,23.20
2010,08,13,13,59,23.20
2010,08,13,14,00,23.20
2010,08,13,14,01,23.30
2010,08,13,14,02,23.50
2010,08,13,14,03,23.80
2010,08,13,14,04,24.20
2010,08,13,14,05,24.50
2010,08,13,14,06,24.90
2010,08,13,14,07,25.30
2010,08,13,14,08,25.70
2010,08,13,14,09,25.90
2010,08,13,14,10,26.00
2010,08,13,14,11,26.10
2010,08,13,14,12,26.30
2010,08,13,14,13,26.50
2010,08,13,14,14,26.70
2010,08,13,14,15,26.70
2010,08,13,14,16,26.80
2010,08,13,14,17,27.00
2010,08,13,14,18,27.10
2010,08,13,14,19,27.20
2010,08,13,14,20,27.30
2010,08,13,14,21,27.30
2010,08,13,14,22,27.30
2010,08,13,14,23,27.30
2010,08,13,14,24,27.40
2010,08,13,14,25,27.40
2010,08,13,14,26,27.50
2010,08,13,14,27,27.60
2010,08,13,14,28,27.70
2010,08,13,14,29,27.90
2010,08,13,14,30,27.90
2010,08,13,14,31,28.00
2010,08,13,14,32,27.70
2010,08,13,14,33,27.20
2010,08,13,14,34,26.60
2010,08,13,14,35,26.30
2010,08,13,14,36,26.10
2010,08,13,14,37,25.80
2010,08,13,14,38,25.60
2010,08,13,14,39,25.50
2010,08,13,14,40,25.50
2010,08,13,14,41,25.40
2010,08,13,14,42,25.30
2010,08,13,14,43,25.30
2010,08,13,14,44,25.20
2010,08,13,14,45,25.20
2010,08,13,14,46,25.20
2010,08,13,14,47,25.40
2010,08,13,14,48,25.50
2010,08,13,14,49,25.30
2010,08,13,14,50,24.70
2010,08,13,14,51,24.10
2010,08,13,14,52,23.80
2010,08,13,14,53,23.60
2010,08,13,14,54,23.40
2010,08,13,14,55,23.30
2010,08,13,14,56,23.30
2010,08,13,14,57,23.30
2010,08,13,14,58,23.30
2010,08,13,14,59,23.20
2010,08,13,15,00,23.10
2010,08,13,15,01,23.10
2010,08,13,15,02,23.20
2010,08,13,15,03,23.10
2010,08,13,15,04,22.90
2010,08,13,15,05,22.80
2010,08,13,15,06,22.60
2010,08,13,15,07,22.50
2010,08,13,15,08,22.50
2010,08,13,15,09,22.40
2010,08,13,15,10,22.60
2010,08,13,15,11,22.70
2010,08,13,15,12,22.80
2010,08,13,15,13,22.90
2010,08,13,15,14,23.10
2010,08,13,15,15,23.30
2010,08,13,15,16,23.30
2010,08,13,15,17,23.20
2010,08,13,15,18,23.00
2010,08,13,15,19,22.80
2010,08,13,15,20,22.70
2010,08,13,15,21,22.80
2010,08,13,15,22,22.90
2010,08,13,15,23,23.00
2010,08,13,15,24,23.00
2010,08,13,15,25,23.10
2010,08,13,15,26,23.20
2010,08,13,15,27,23.40
2010,08,13,15,28,23.60
2010,08,13,15,29,23.70
2010,08,13,15,30,23.70
2010,08,13,15,31,23.70
2010,08,13,15,32,23.70
2010,08,13,15,33,23.70
2010,08,13,15,34,23.70
2010,08,13,15,35,23.60
2010,08,13,15,36,23.60
2010,08,13,15,37,23.60
2010,08,13,15,38,23.60
2010,08,13,15,39,23.60
2010,08,13,15,40,23.60
2010,08,13,15,41,23.60
2010,08,13,15,42,23.70
2010,08,13,15,43,23.70
2010,08,13,15,44,23.90
2010,08,13,15,45,24.00
2010,08,13,15,46,24.10
2010,08,13,15,47,24.00
2010,08,13,15,48,23.90
2010,08,13,15,49,23.90
2010,08,13,15,50,24.00
2010,08,13,15,51,24.10
2010,08,13,15,52,24.10
2010,08,13,15,53,24.10
2010,08,13,15,54,24.10
2010,08,13,15,55,23.90
2010,08,13,15,56,23.80
2010,08,13,15,57,23.80
2010,08,13,15,58,23.80
2010,08,13,15,59,23.70
2010,08,13,16,00,23.80
2010,08,13,16,01,23.80
2010,08,13,16,02,23.90
2010,08,13,16,03,24.00
2010,08,13,16,04,24.00
2010,08,13,16,05,23.90
2010,08,13,16,06,23.80
2010,08,13,16,07,23.70
2010,08,13,16,08,23.70
2010,08,13,16,09,23.70
2010,08,13,16,10,23.70
2010,08,13,16,11,23.70
2010,08,13,16,12,23.70
2010,08,13,16,13,23.70
2010,08,13,16,14,23.70
2010,08,13,16,15,23.70
2010,08,13,16,16,23.70
2010,08,13,16,17,23.70
2010,08,13,16,18,23.70
2010,08,13,16,19,23.70
2010,08,13,16,20,23.80
2010,08,13,16,21,23.90
2010,08,13,16,22,24.00
2010,08,13,16,23,24.10
2010,08,13,16,24,24.30
2010,08,13,16,25,24.40
2010,08,13,16,26,24.50
2010,08,13,16,27,24.60
2010,08,13,16,28,24.60
2010,08,13,16,29,24.70
2010,08,13,16,30,24.70
2010,08,13,16,31,24.70
2010,08,13,16,32,24.70
2010,08,13,16,33,24.60
2010,08,13,16,34,24.60
2010,08,13,16,35,24.60
2010,08,13,16,36,24.60
2010,08,13,16,37,24.60
2010,08,13,16,38,24.60
2010,08,13,16,39,24.60
2010,08,13,16,40,24.60
2010,08,13,16,41,24.50
2010,08,13,16,42,24.40
2010,08,13,16,43,24.40
2010,08,13,16,44,24.40
2010,08,13,16,45,24.50
2010,08,13,16,46,24.50
2010,08,13,16,47,24.60
2010,08,13,16,48,24.70
2010,08,13,16,49,24.80
2010,08,13,16,50,24.90
2010,08,13,16,51,25.00
2010,08,13,16,52,25.10
2010,08,13,16,53,25.10
2010,08,13,16,54,25.20
2010,08,13,16,55,25.30
2010,08,13,16,56,25.40
2010,08,13,16,57,25.40
2010,08,13,16,58,25.40
2010,08,13,16,59,25.40
2010,08,13,17,00,25.40
2010,08,13,17,01,25.50
2010,08,13,17,02,25.60
2010,08,13,17,03,25.60
2010,08,13,17,04,25.80
2010,08,13,17,05,25.80
2010,08,13,17,06,25.80
2010,08,13,17,07,25.90
2010,08,13,17,08,25.90
2010,08,13,17,09,26.00
2010,08,13,17,10,26.10
2010,08,13,17,11,26.20
2010,08,13,17,12,26.30
2010,08,13,17,13,26.40
2010,08,13,17,14,26.50
2010,08,13,17,15,26.60
2010,08,13,17,16,26.80
2010,08,13,17,17,26.90
2010,08,13,17,18,27.00
2010,08,13,17,19,27.20